Location: Bonningues
(50.7927°N, 2.0150°E)
Time: 06:03:01
(UTC+00:00)

Cosmos 1980 Rocket - Pass Details

Date: 08 August 2020
Orbit: 829 x 849 km, 71.0° (Epoch: 23 September)

Event Time Altitude Azimuth Distance (km) Brightness Sun altitude
Rises 22:19:00 0° 322° (NW) 3,420 6.8 -20.0°
Reaches altitude 10° 22:21:55 10° 308° (NW) 2,477 5.5 -20.2°
Maximum altitude 22:26:15 23° 258° (WSW) 1,727 3.9 -20.5°
Enters shadow 22:29:15 15° 219° (SW) 2,114 4.0 -20.7°
